Location: Montreal
(45.5087°N, 73.5540°W)
Time: 14:12:11
(UTC-04:00)

X-37B - Pass Details

Date: 04 October 2021
Orbit: 385 x 389 km, 45.0° (Epoch: 13 October)

Event Time Altitude Azimuth Distance (km) Brightness Sun altitude
Exits shadow 05:11:21 19° 169° (S) 1,004 2.6 -19.1°
Drops below altitude 10° 05:12:40 10° 150° (SSE) 1,407 3.6 -18.9°
Sets 05:14:57 0° 136° (SE) 2,259 4.9 -18.5°
